Time,TemperatureF,DewpointF,PressureIn,WindDirection,WindDirectionDegrees,WindSpeedMPH,WindSpeedGustMPH,Humidity,HourlyPrecipIn,Conditions,Clouds,dailyrainin,SoftwareType,DateUTC
2013-01-01 00:12:00,36.3,35.0,30.06,NNE,19,0.0,2.0,96,0.00,,,0.00,weatherlink.com 1.10,2013-01-01 06:12:00,
2013-01-01 00:27:00,36.3,35.0,30.04,North,9,0.0,2.0,96,0.00,,,0.00,weatherlink.com 1.10,2013-01-01 06:27:00,
2013-01-01 00:43:00,36.3,36.0,30.05,North,350,0.0,2.0,97,0.00,,,0.00,weatherlink.com 1.10,2013-01-01 06:43:00,
2013-01-01 00:58:00,36.3,35.0,30.05,NNE,19,0.0,2.0,96,0.00,,,0.00,weatherlink.com 1.10,2013-01-01 06:58:00,
2013-01-01 01:28:00,36.5,36.0,30.06,NNE,28,0.0,2.0,97,0.00,,,0.00,weatherlink.com 1.10,2013-01-01 07:28:00,
2013-01-01 01:43:00,36.5,36.0,30.06,NNE,28,0.0,1.0,97,0.00,,,0.00,weatherlink.com 1.10,2013-01-01 07:43:00,
2013-01-01 01:58:00,36.5,36.0,30.06,NNE,22,1.0,3.0,97,0.00,,,0.00,weatherlink.com 1.10,2013-01-01 07:58:00,
2013-01-01 02:13:00,36.6,36.0,30.06,North,6,1.0,2.0,97,0.00,,,0.00,weatherlink.com 1.10,2013-01-01 08:13:00,
2013-01-01 02:28:00,36.7,36.0,30.07,NNE,32,1.0,2.0,97,0.00,,,0.00,weatherlink.com 1.10,2013-01-01 08:28:00,
2013-01-01 02:43:00,36.7,36.0,30.07,NW,320,2.0,3.0,97,0.00,,,0.00,weatherlink.com 1.10,2013-01-01 08:43:00,
2013-01-01 02:58:00,36.7,36.0,30.08,NNE,30,3.0,6.0,97,0.00,,,0.00,weatherlink.com 1.10,2013-01-01 08:58:00,
2013-01-01 03:13:00,36.6,36.0,30.08,NNW,340,0.0,4.0,97,0.00,,,0.00,weatherlink.com 1.10,2013-01-01 09:13:00,
2013-01-01 03:28:00,36.5,36.0,30.08,NW,324,3.0,3.0,97,0.00,,,0.00,weatherlink.com 1.10,2013-01-01 09:28:00,
2013-01-01 03:43:00,36.4,36.0,30.07,North,3,0.0,4.0,97,0.00,,,0.00,weatherlink.com 1.10,2013-01-01 09:43:00,
2013-01-01 03:58:00,36.3,36.0,30.07,NNW,327,0.0,4.0,97,0.00,,,0.00,weatherlink.com 1.10,2013-01-01 09:58:00,
2013-01-01 04:13:00,36.3,36.0,30.07,North,4,3.0,5.0,97,0.00,,,0.00,weatherlink.com 1.10,2013-01-01 10:13:00,
2013-01-01 04:28:00,36.2,36.0,30.07,NNE,26,0.0,3.0,97,0.00,,,0.00,weatherlink.com 1.10,2013-01-01 10:28:00,
2013-01-01 04:43:00,36.2,36.0,30.08,NW,305,0.0,2.0,97,0.00,,,0.00,weatherlink.com 1.10,2013-01-01 10:43:00,
2013-01-01 04:58:00,36.1,35.0,30.08,NNW,340,1.0,2.0,97,0.00,,,0.00,weatherlink.com 1.10,2013-01-01 10:58:00,
2013-01-01 05:13:00,36.1,35.0,30.09,NNW,331,0.0,3.0,97,0.00,,,0.00,weatherlink.com 1.10,2013-01-01 11:13:00,
2013-01-01 05:28:00,36.0,35.0,30.08,North,352,2.0,3.0,97,0.00,,,0.00,weatherlink.com 1.10,2013-01-01 11:28:00,
2013-01-01 05:43:00,36.1,35.0,30.10,NW,316,0.0,3.0,97,0.00,,,0.00,weatherlink.com 1.10,2013-01-01 11:43:00,
2013-01-01 05:58:00,36.0,35.0,30.09,NNE,21,0.0,5.0,97,0.00,,,0.00,weatherlink.com 1.10,2013-01-01 11:58:00,
2013-01-01 06:13:00,35.9,35.0,30.09,NNE,26,0.0,6.0,96,0.00,,,0.00,weatherlink.com 1.10,2013-01-01 12:13:00,
2013-01-01 06:28:00,35.7,35.0,30.10,NNW,344,1.0,6.0,96,0.00,,,0.00,weatherlink.com 1.10,2013-01-01 12:28:00,
2013-01-01 06:43:00,35.5,35.0,30.10,NE,44,3.0,7.0,96,0.00,,,0.00,weatherlink.com 1.10,2013-01-01 12:43:00,
2013-01-01 06:58:00,35.4,34.0,30.09,NNW,332,2.0,5.0,96,0.00,,,0.00,weatherlink.com 1.10,2013-01-01 12:58:00,
2013-01-01 07:13:00,35.2,34.0,30.09,NNE,33,2.0,7.0,96,0.00,,,0.00,weatherlink.com 1.10,2013-01-01 13:13:00,
2013-01-01 07:28:00,34.9,34.0,30.09,NNE,21,2.0,8.0,96,0.00,,,0.00,weatherlink.com 1.10,2013-01-01 13:28:00,
2013-01-01 07:43:00,34.8,34.0,30.10,North,5,2.0,7.0,96,0.00,,,0.00,weatherlink.com 1.10,2013-01-01 13:43:00,
2013-01-01 07:58:00,34.7,34.0,30.10,North,360,0.0,6.0,96,0.00,,,0.00,weatherlink.com 1.10,2013-01-01 13:58:00,
2013-01-01 08:13:00,34.7,34.0,30.11,North,7,1.0,6.0,96,0.00,,,0.00,weatherlink.com 1.10,2013-01-01 14:13:00,
2013-01-01 08:28:00,34.9,34.0,30.14,North,8,1.0,6.0,96,0.00,,,0.00,weatherlink.com 1.10,2013-01-01 14:28:00,
2013-01-01 08:43:00,35.1,34.0,30.14,NNE,32,3.0,8.0,95,0.00,,,0.00,weatherlink.com 1.10,2013-01-01 14:43:00,
2013-01-01 08:58:00,35.2,34.0,30.12,NE,51,0.0,5.0,95,0.00,,,0.00,weatherlink.com 1.10,2013-01-01 14:58:00,
2013-01-01 09:13:00,35.2,34.0,30.14,North,358,2.0,7.0,95,0.00,,,0.00,weatherlink.com 1.10,2013-01-01 15:13:00,
2013-01-01 09:29:00,35.3,34.0,30.15,NNW,339,0.0,5.0,95,0.00,,,0.00,weatherlink.com 1.10,2013-01-01 15:29:00,
2013-01-01 09:44:00,35.3,34.0,30.15,North,353,2.0,9.0,94,0.00,,,0.00,weatherlink.com 1.10,2013-01-01 15:44:00,
2013-01-01 09:59:00,35.3,34.0,30.14,NE,44,5.0,9.0,93,0.00,,,0.00,weatherlink.com 1.10,2013-01-01 15:59:00,
2013-01-01 10:14:00,35.3,34.0,30.14,NW,323,3.0,7.0,94,0.00,,,0.00,weatherlink.com 1.10,2013-01-01 16:14:00,
2013-01-01 10:29:00,35.3,34.0,30.15,NW,325,2.0,8.0,93,0.00,,,0.00,weatherlink.com 1.10,2013-01-01 16:29:00,
2013-01-01 10:44:00,35.7,34.0,30.15,WNW,284,2.0,7.0,93,0.00,,,0.00,weatherlink.com 1.10,2013-01-01 16:44:00,
2013-01-01 10:59:00,36.0,34.0,30.14,North,350,2.0,6.0,91,0.00,,,0.00,weatherlink.com 1.10,2013-01-01 16:59:00,
2013-01-01 11:14:00,36.2,34.0,30.15,WNW,303,2.0,7.0,91,0.00,,,0.00,weatherlink.com 1.10,2013-01-01 17:14:00,
2013-01-01 11:29:00,36.0,34.0,30.15,WNW,302,2.0,6.0,91,0.00,,,0.00,weatherlink.com 1.10,2013-01-01 17:29:00,
2013-01-01 11:44:00,35.9,34.0,30.16,NNW,346,1.0,6.0,91,0.00,,,0.00,weatherlink.com 1.10,2013-01-01 17:44:00,
2013-01-01 11:59:00,35.6,34.0,30.15,North,357,2.0,6.0,92,0.00,,,0.00,weatherlink.com 1.10,2013-01-01 17:59:00,
2013-01-01 12:14:00,35.5,33.0,30.14,NNE,13,0.0,6.0,91,0.00,,,0.00,weatherlink.com 1.10,2013-01-01 18:14:00,
2013-01-01 12:29:00,35.5,33.0,30.13,NW,305,5.0,5.0,91,0.00,,,0.00,weatherlink.com 1.10,2013-01-01 18:29:00,
2013-01-01 12:44:00,35.5,33.0,30.13,NNW,342,3.0,4.0,91,0.00,,,0.00,weatherlink.com 1.10,2013-01-01 18:44:00,
2013-01-01 12:59:00,35.3,33.0,30.12,NNW,337,5.0,5.0,91,0.00,,,0.00,weatherlink.com 1.10,2013-01-01 18:59:00,
2013-01-01 13:14:00,35.0,33.0,30.09,WNW,284,3.0,8.0,91,0.00,,,0.00,weatherlink.com 1.10,2013-01-01 19:14:00,
2013-01-01 13:29:00,34.7,33.0,30.10,NW,319,5.0,7.0,93,0.00,,,0.00,weatherlink.com 1.10,2013-01-01 19:29:00,
2013-01-01 13:44:00,34.4,33.0,30.11,NW,318,2.0,7.0,93,0.00,,,0.00,weatherlink.com 1.10,2013-01-01 19:44:00,
2013-01-01 13:59:00,34.1,32.0,30.09,NNW,346,3.0,8.0,92,0.00,,,0.00,weatherlink.com 1.10,2013-01-01 19:59:00,
2013-01-01 14:14:00,33.9,32.0,30.11,NNW,341,1.0,6.0,91,0.00,,,0.00,weatherlink.com 1.10,2013-01-01 20:14:00,
2013-01-01 14:29:00,33.5,31.0,30.10,NNW,344,2.0,8.0,91,0.00,,,0.00,weatherlink.com 1.10,2013-01-01 20:29:00,
2013-01-01 14:44:00,33.2,31.0,30.12,NW,311,1.0,7.0,91,0.00,,,0.00,weatherlink.com 1.10,2013-01-01 20:44:00,
2013-01-01 14:59:00,32.7,30.0,30.12,NW,323,3.0,9.0,91,0.00,,,0.00,weatherlink.com 1.10,2013-01-01 20:59:00,
2013-01-01 15:14:00,32.1,30.0,30.12,West,280,1.0,6.0,92,0.00,,,0.00,weatherlink.com 1.10,2013-01-01 21:14:00,
2013-01-01 15:29:00,31.9,30.0,30.13,NNE,23,5.0,6.0,92,0.00,,,0.00,weatherlink.com 1.10,2013-01-01 21:29:00,
2013-01-01 15:44:00,31.7,30.0,30.13,NW,309,1.0,6.0,92,0.00,,,0.00,weatherlink.com 1.10,2013-01-01 21:44:00,
2013-01-01 15:59:00,31.5,30.0,30.13,NW,309,3.0,8.0,92,0.00,,,0.00,weatherlink.com 1.10,2013-01-01 21:59:00,
2013-01-01 16:14:00,31.3,29.0,30.15,WNW,296,12.0,12.0,91,0.00,,,0.00,weatherlink.com 1.10,2013-01-01 22:14:00,
2013-01-01 16:29:00,31.2,29.0,30.16,NW,321,3.0,7.0,90,0.00,,,0.00,weatherlink.com 1.10,2013-01-01 22:29:00,
2013-01-01 16:44:00,31.0,29.0,30.15,WNW,295,2.0,10.0,90,0.00,,,0.00,weatherlink.com 1.10,2013-01-01 22:44:00,
2013-01-01 16:59:00,30.7,28.0,30.17,WNW,297,5.0,9.0,89,0.00,,,0.00,weatherlink.com 1.10,2013-01-01 22:59:00,
2013-01-01 17:14:00,30.4,27.0,30.18,WNW,288,8.0,9.0,88,0.00,,,0.00,weatherlink.com 1.10,2013-01-01 23:14:00,
2013-01-01 17:29:00,29.9,27.0,30.18,NW,315,3.0,9.0,88,0.00,,,0.00,weatherlink.com 1.10,2013-01-01 23:29:00,
2013-01-01 17:44:00,29.6,26.0,30.18,NNW,330,2.0,7.0,87,0.00,,,0.00,weatherlink.com 1.10,2013-01-01 23:44:00,
2013-01-01 17:59:00,29.2,26.0,30.18,NW,320,4.0,6.0,88,0.00,,,0.00,weatherlink.com 1.10,2013-01-01 23:59:00,
2013-01-01 18:14:00,29.1,26.0,30.19,NW,309,5.0,10.0,87,0.00,,,0.00,weatherlink.com 1.10,2013-01-02 00:14:00,
2013-01-01 18:29:00,28.8,25.0,30.20,WNW,295,2.0,9.0,86,0.00,,,0.00,weatherlink.com 1.10,2013-01-02 00:29:00,
2013-01-01 18:45:00,28.6,25.0,30.20,NW,306,3.0,6.0,87,0.00,,,0.00,weatherlink.com 1.10,2013-01-02 00:45:00,
2013-01-01 19:00:00,28.6,25.0,30.20,NNW,344,3.0,9.0,87,0.00,,,0.00,weatherlink.com 1.10,2013-01-02 01:00:00,
2013-01-01 19:15:00,28.3,25.0,30.21,NNE,14,3.0,6.0,87,0.00,,,0.00,weatherlink.com 1.10,2013-01-02 01:15:00,
2013-01-01 19:30:00,28.0,25.0,30.20,North,3,0.0,7.0,87,0.00,,,0.00,weatherlink.com 1.10,2013-01-02 01:30:00,
2013-01-01 19:45:00,28.0,25.0,30.21,NW,311,2.0,7.0,87,0.00,,,0.00,weatherlink.com 1.10,2013-01-02 01:45:00,
2013-01-01 20:00:00,28.0,25.0,30.22,NW,309,3.0,8.0,87,0.00,,,0.00,weatherlink.com 1.10,2013-01-02 02:00:00,
2013-01-01 20:15:00,27.8,24.0,30.22,NW,317,3.0,10.0,86,0.00,,,0.00,weatherlink.com 1.10,2013-01-02 02:15:00,
2013-01-01 20:30:00,27.4,24.0,30.22,NNW,331,1.0,9.0,86,0.00,,,0.00,weatherlink.com 1.10,2013-01-02 02:30:00,
2013-01-01 20:45:00,27.2,24.0,30.21,North,358,1.0,7.0,87,0.00,,,0.00,weatherlink.com 1.10,2013-01-02 02:45:00,
2013-01-01 21:00:00,26.9,23.0,30.21,West,280,3.0,10.0,86,0.00,,,0.00,weatherlink.com 1.10,2013-01-02 03:00:00,
2013-01-01 21:15:00,26.6,23.0,30.22,West,274,0.0,9.0,86,0.00,,,0.00,weatherlink.com 1.10,2013-01-02 03:15:00,
2013-01-01 21:30:00,26.4,23.0,30.22,NW,305,3.0,5.0,86,0.00,,,0.00,weatherlink.com 1.10,2013-01-02 03:30:00,
2013-01-01 21:45:00,26.2,23.0,30.23,NNW,344,1.0,5.0,86,0.00,,,0.00,weatherlink.com 1.10,2013-01-02 03:45:00,
2013-01-01 22:00:00,26.1,22.0,30.22,WNW,296,3.0,7.0,85,0.00,,,0.00,weatherlink.com 1.10,2013-01-02 04:00:00,
2013-01-01 22:15:00,25.8,22.0,30.23,WNW,303,0.0,5.0,86,0.00,,,0.00,weatherlink.com 1.10,2013-01-02 04:15:00,
2013-01-01 22:30:00,25.6,22.0,30.23,NW,310,2.0,6.0,86,0.00,,,0.00,weatherlink.com 1.10,2013-01-02 04:30:00,
2013-01-01 22:45:00,25.6,22.0,30.24,NW,307,0.0,5.0,86,0.00,,,0.00,weatherlink.com 1.10,2013-01-02 04:45:00,
2013-01-01 23:00:00,25.4,22.0,30.24,NW,307,0.0,7.0,85,0.00,,,0.00,weatherlink.com 1.10,2013-01-02 05:00:00,
2013-01-01 23:15:00,25.1,21.0,30.24,West,280,2.0,8.0,85,0.00,,,0.00,weatherlink.com 1.10,2013-01-02 05:15:00,
2013-01-01 23:30:00,24.7,21.0,30.24,West,271,3.0,7.0,84,0.00,,,0.00,weatherlink.com 1.10,2013-01-02 05:30:00,
2013-01-01 23:45:00,24.3,20.0,30.24,ESE,105,1.0,6.0,85,0.00,,,0.00,weatherlink.com 1.10,2013-01-02 05:45:00,